A - Partial Day,,,,,,,,,,,,,,,,,,,,
B - Ice Conditions ,,,,,,,,,,,,,,,,,,,,
D - Dry,,,,,,,,,,,,,,,,,,,,
E - Estimated,,,,,,,,,,,,,,,,,,,,
R - Revised within the last two years,,,,,,,,,,,,,,,,,,,,
* - Asterik-occurs more than once,,,,,,,,,,,,,,,,,,,,
d - Complete and Some Dry,,,,,,,,,,,,,,,,,,,,
P - Partially Dry,,,,,,,,,,,,,,,,,,,,
p - Provisional Values,,,,,,,,,,,,,,,,,,,,

North Saskatchewan at Edmonton,,,Battle River at the boundary,,,Red Deer River near Bindloss,,,Bow River at the Mouth,,,Oldman River at the mouth,,,South Saskatchewan at Medicine Hat,,,Battle Creek at the Alberta Boundary,,
RNSASEDM,,,RBATTSAS,,,RREDBIN,,,RBOWMOU,,,ROLDMOU,,,RSSASMED,,,RBATTBDY,,
Date,Value,Symbol,Date,Value,Symbol,Date,Value,Symbol,Date,Value,Symbol,Date,Value,Symbol,Date,Value,Symbol,Date,Value,Symbol
01/01/2008,102,B,01/01/2008 0:00,1.405,,01/01/2008 0:00,14.4,B,01/01/2008 0:00,56,B,01/01/2008 0:00,15.2,B,01/01/2008 0:00,74.4,B,01/01/2008,   ,  
02/01/2008,100,B,02/01/2008 0:00,1.403,,02/01/2008 0:00,14.7,B,02/01/2008 0:00,58,B,02/01/2008 0:00,15.4,B,02/01/2008 0:00,76.7,B,02/01/2008,   ,  
03/01/2008,100,B,03/01/2008 0:00,1.378,,03/01/2008 0:00,15,B,03/01/2008 0:00,59,B,03/01/2008 0:00,15.6,B,03/01/2008 0:00,78,B,03/01/2008,   ,  
04/01/2008,105,B,04/01/2008 0:00,1.337,,04/01/2008 0:00,14.9,B,04/01/2008 0:00,60,B,04/01/2008 0:00,14.9,B,04/01/2008 0:00,78.3,B,04/01/2008,   ,  
05/01/2008,110,B,05/01/2008 0:00,1.318,,05/01/2008 0:00,14.8,B,05/01/2008 0:00,62,B,05/01/2008 0:00,15.1,B,05/01/2008 0:00,80.6,B,05/01/2008,   ,  
06/01/2008,115,B,06/01/2008 0:00,1.27,,06/01/2008 0:00,14.7,B,06/01/2008 0:00,65,B,06/01/2008 0:00,15.6,B,06/01/2008 0:00,84.2,B,06/01/2008,   ,  
07/01/2008,119,B,07/01/2008 0:00,1.233,,07/01/2008 0:00,14.6,B,07/01/2008 0:00,68.5,B,07/01/2008 0:00,16,B,07/01/2008 0:00,88.3,B,07/01/2008,   ,  
08/01/2008,113,B,08/01/2008 0:00,1.268,,08/01/2008 0:00,14.8,B,08/01/2008 0:00,72.9,B,08/01/2008 0:00,16.1,B,08/01/2008 0:00,93,B,08/01/2008,   ,  
09/01/2008,99.8,B,09/01/2008 0:00,1.281,,09/01/2008 0:00,15.3,B,09/01/2008 0:00,66.4,B,09/01/2008 0:00,15.6,B,09/01/2008 0:00,85.7,B,09/01/2008,   ,  
10/01/2008,101,B,10/01/2008 0:00,1.271,,10/01/2008 0:00,15.3,B,10/01/2008 0:00,62.1,B,10/01/2008 0:00,14.3,B,10/01/2008 0:00,79.8,B,10/01/2008,   ,  
11/01/2008,105,B,11/01/2008 0:00,1.244,,11/01/2008 0:00,15.6,B,11/01/2008 0:00,59.3,B,11/01/2008 0:00,14.1,B,11/01/2008 0:00,76.7,B,11/01/2008,   ,  
12/01/2008,112,B,12/01/2008 0:00,1.235,,12/01/2008 0:00,15.5,B,12/01/2008 0:00,54.4,B,12/01/2008 0:00,14.6,B,12/01/2008 0:00,72.1,B,12/01/2008,   ,  
13/01/2008,117,B,13/01/2008 0:00,1.164,,13/01/2008 0:00,15.4,B,13/01/2008 0:00,53.4,B,13/01/2008 0:00,14.7,B,13/01/2008 0:00,71.2,B,13/01/2008,   ,  
14/01/2008,119,B,14/01/2008 0:00,1.081,,14/01/2008 0:00,15.3,B,14/01/2008 0:00,55.2,B,14/01/2008 0:00,15.2,B,14/01/2008 0:00,73.6,B,14/01/2008,   ,  
15/01/2008,120,B,15/01/2008 0:00,1.032,,15/01/2008 0:00,15.2,B,15/01/2008 0:00,56.2,B,15/01/2008 0:00,15.4,B,15/01/2008 0:00,74.8,B,15/01/2008,   ,  
16/01/2008,118,B,16/01/2008 0:00,0.926,,16/01/2008 0:00,14.5,B,16/01/2008 0:00,57.5,B,16/01/2008 0:00,15.4,B,16/01/2008 0:00,76.2,B,16/01/2008,   ,  
17/01/2008,114,B,17/01/2008 0:00,0.916,,17/01/2008 0:00,14.5,B,17/01/2008 0:00,59.4,B,17/01/2008 0:00,14.8,B,17/01/2008 0:00,77.5,B,17/01/2008,   ,  
18/01/2008,116,B,18/01/2008 0:00,0.871,,18/01/2008 0:00,14.5,B,18/01/2008 0:00,59.7,B,18/01/2008 0:00,14.3,B,18/01/2008 0:00,77.3,B,18/01/2008,   ,  
19/01/2008,116,B,19/01/2008 0:00,0.883,,19/01/2008 0:00,14.6,B,19/01/2008 0:00,54.1,B,19/01/2008 0:00,14.8,B,19/01/2008 0:00,72,B,19/01/2008,   ,  
20/01/2008,115,B,20/01/2008 0:00,0.909,,20/01/2008 0:00,14.7,B,20/01/2008 0:00,53,B,20/01/2008 0:00,13.3,B,20/01/2008 0:00,69.3,B,20/01/2008,   ,  
21/01/2008,114,B,21/01/2008 0:00,0.941,,21/01/2008 0:00,14.7,B,21/01/2008 0:00,52,B,21/01/2008 0:00,12,B,21/01/2008 0:00,66.9,B,21/01/2008,   ,  
22/01/2008,109,B,22/01/2008 0:00,0.939,,22/01/2008 0:00,14.5,B,22/01/2008 0:00,50,B,22/01/2008 0:00,12.5,B,22/01/2008 0:00,65.3,B,22/01/2008,   ,  
23/01/2008,107,B,23/01/2008 0:00,0.942,,23/01/2008 0:00,14.1,B,23/01/2008 0:00,46,B,23/01/2008 0:00,12.6,B,23/01/2008 0:00,61.2,B,23/01/2008,   ,  
24/01/2008,98,B,24/01/2008 0:00,0.896,,24/01/2008 0:00,14.3,B,24/01/2008 0:00,43.5,B,24/01/2008 0:00,12,B,24/01/2008 0:00,58,B,24/01/2008,   ,  
25/01/2008,92,B,25/01/2008 0:00,0.866,,25/01/2008 0:00,14.7,B,25/01/2008 0:00,42.3,B,25/01/2008 0:00,11.1,B,25/01/2008 0:00,55.8,B,25/01/2008,   ,  
26/01/2008,85,B,26/01/2008 0:00,0.859,,26/01/2008 0:00,14.5,B,26/01/2008 0:00,49.1,B,26/01/2008 0:00,11.9,B,26/01/2008 0:00,63.7,B,26/01/2008,   ,  
27/01/2008,80,B,27/01/2008 0:00,0.861,,27/01/2008 0:00,14.3,B,27/01/2008 0:00,52.3,B,27/01/2008 0:00,12.2,B,27/01/2008 0:00,67.4,B,27/01/2008,   ,  
28/01/2008,77.5,B,28/01/2008 0:00,0.945,,28/01/2008 0:00,14.1,B,28/01/2008 0:00,58.7,B,28/01/2008 0:00,12.1,B,28/01/2008 0:00,74,B,28/01/2008,   ,  
29/01/2008,77,B,29/01/2008 0:00,0.976,,29/01/2008 0:00,13.9,B,29/01/2008 0:00,54,B,29/01/2008 0:00,11.7,B,29/01/2008 0:00,68.7,B,29/01/2008,   ,  
30/01/2008,78,B,30/01/2008 0:00,0.925,,30/01/2008 0:00,14.2,B,30/01/2008 0:00,50,B,30/01/2008 0:00,11.6,B,30/01/2008 0:00,64.4,B,30/01/2008,   ,  
31/01/2008,81,B,31/01/2008 0:00,0.857,,31/01/2008 0:00,14.5,B,31/01/2008 0:00,40.9,B,31/01/2008 0:00,11.7,B,31/01/2008 0:00,55,B,31/01/2008,   ,  
01/02/2008,84,B,01/02/2008 0:00,0.817,,01/02/2008 0:00,14.4,B,01/02/2008 0:00,31.4,B,01/02/2008 0:00,11.6,B,01/02/2008 0:00,44.9,B,01/02/2008,   ,  
02/02/2008,87,B,02/02/2008 0:00,0.791,,02/02/2008 0:00,14.6,B,02/02/2008 0:00,33.8,B,02/02/2008 0:00,11.7,B,02/02/2008 0:00,47.5,B,02/02/2008,   ,  
03/02/2008,90,B,03/02/2008 0:00,0.747,,03/02/2008 0:00,14.6,B,03/02/2008 0:00,36.7,B,03/02/2008 0:00,11.9,B,03/02/2008 0:00,50.8,B,03/02/2008,   ,  
04/02/2008,93,B,04/02/2008 0:00,0.724,,04/02/2008 0:00,14.5,B,04/02/2008 0:00,50.6,B,04/02/2008 0:00,12,B,04/02/2008 0:00,65.4,B,04/02/2008,   ,  
05/02/2008,97,B,05/02/2008 0:00,0.702,,05/02/2008 0:00,14.5,B,05/02/2008 0:00,52,B,05/02/2008 0:00,13.5,B,05/02/2008 0:00,68.4,B,05/02/2008,   ,  
06/02/2008,101,B,06/02/2008 0:00,0.706,,06/02/2008 0:00,14.5,B,06/02/2008 0:00,55,B,06/02/2008 0:00,14.2,B,06/02/2008 0:00,72.3,B,06/02/2008,   ,  
07/02/2008,104,B,07/02/2008 0:00,0.696,,07/02/2008 0:00,15.1,B,07/02/2008 0:00,57,B,07/02/2008 0:00,15,B,07/02/2008 0:00,75.2,B,07/02/2008,   ,  
08/02/2008,100,B,08/02/2008 0:00,0.678,,08/02/2008 0:00,15.4,B,08/02/2008 0:00,58.9,B,08/02/2008 0:00,15.8,B,08/02/2008 0:00,78.1,B,08/02/2008,   ,  
09/02/2008,94,B,09/02/2008 0:00,0.663,,09/02/2008 0:00,15.6,B,09/02/2008 0:00,59.4,B,09/02/2008 0:00,15.9,B,09/02/2008 0:00,78.7,B,09/02/2008,   ,  
10/02/2008,89,B,10/02/2008 0:00,0.62,,10/02/2008 0:00,16.1,B,10/02/2008 0:00,58,B,10/02/2008 0:00,15.8,B,10/02/2008 0:00,77.1,B,10/02/2008,   ,  
11/02/2008,84,B,11/02/2008 0:00,0.54,,11/02/2008 0:00,16.8,B,11/02/2008 0:00,56,B,11/02/2008 0:00,15.9,B,11/02/2008 0:00,75.1,B,11/02/2008,   ,  
12/02/2008,84.5,B,12/02/2008 0:00,0.493,,12/02/2008 0:00,17,B,12/02/2008 0:00,54,B,12/02/2008 0:00,15,B,12/02/2008 0:00,72.1,B,12/02/2008,   ,  
13/02/2008,86.5,B,13/02/2008 0:00,0.487,,13/02/2008 0:00,17.7,B,13/02/2008 0:00,52.7,B,13/02/2008 0:00,16,B,13/02/2008 0:00,71.8,B,13/02/2008,   ,  
14/02/2008,89,B,14/02/2008 0:00,0.498,,14/02/2008 0:00,18.4,B,14/02/2008 0:00,52.3,B,14/02/2008 0:00,15.9,B,14/02/2008 0:00,71.3,B,14/02/2008,   ,  
15/02/2008,92.5,B,15/02/2008 0:00,0.529,,15/02/2008 0:00,19,B,15/02/2008 0:00,62.9,B,15/02/2008 0:00,15.8,B,15/02/2008 0:00,82.2,B,15/02/2008,   ,  
16/02/2008,96,B,16/02/2008 0:00,0.587,,16/02/2008 0:00,18.7,B,16/02/2008 0:00,67.1,B,16/02/2008 0:00,15.9,B,16/02/2008 0:00,86.7,B,16/02/2008,   ,  
17/02/2008,93,B,17/02/2008 0:00,0.698,,17/02/2008 0:00,18.1,B,17/02/2008 0:00,69.2,B,17/02/2008 0:00,15.8,B,17/02/2008 0:00,88.8,B,17/02/2008,   ,  
18/02/2008,90,B,18/02/2008 0:00,0.686,,18/02/2008 0:00,17.6,B,18/02/2008 0:00,70.5,B,18/02/2008 0:00,15.7,B,18/02/2008 0:00,90.1,B,18/02/2008,   ,  
19/02/2008,88.7,B,19/02/2008 0:00,0.611,,19/02/2008 0:00,17.8,B,19/02/2008 0:00,71.6,B,19/02/2008 0:00,15.8,B,19/02/2008 0:00,91.3,B,19/02/2008,   ,  
20/02/2008,90,B,20/02/2008 0:00,0.594,,20/02/2008 0:00,18.2,B,20/02/2008 0:00,68,B,20/02/2008 0:00,15.9,B,20/02/2008 0:00,87.7,B,20/02/2008,0.074,B
21/02/2008,92.5,B,21/02/2008 0:00,0.625,,21/02/2008 0:00,17.8,B,21/02/2008 0:00,65.1,B,21/02/2008 0:00,15.9,B,21/02/2008 0:00,84.6,B,21/02/2008,0.074,B
22/02/2008,96.5,B,22/02/2008 0:00,0.67,,22/02/2008 0:00,18,B,22/02/2008 0:00,66,B,22/02/2008 0:00,16,B,22/02/2008 0:00,85.7,B,22/02/2008,0.075,B
23/02/2008,100,B,23/02/2008 0:00,0.701,,23/02/2008 0:00,18.1,B,23/02/2008 0:00,66.7,B,23/02/2008 0:00,18,B,23/02/2008 0:00,88.5,B,23/02/2008,0.077,B
24/02/2008,104,B,24/02/2008 0:00,0.714,,24/02/2008 0:00,18.5,B,24/02/2008 0:00,68.1,B,24/02/2008 0:00,18,B,24/02/2008 0:00,90,B,24/02/2008,0.079,B
25/02/2008,108,B,25/02/2008 0:00,0.709,,25/02/2008 0:00,17.9,B,25/02/2008 0:00,72.2,B,25/02/2008 0:00,20,B,25/02/2008 0:00,96.3,B,25/02/2008,0.08,B
26/02/2008,113,B,26/02/2008 0:00,0.707,,26/02/2008 0:00,17.9,B,26/02/2008 0:00,73.9,B,26/02/2008 0:00,21,B,26/02/2008 0:00,99.2,B,26/02/2008,0.08,B
27/02/2008,118,B,27/02/2008 0:00,0.695,,27/02/2008 0:00,18.2,B,27/02/2008 0:00,71.5,B,27/02/2008 0:00,21.5,B,27/02/2008 0:00,97.2,B,27/02/2008,0.077,B
28/02/2008,124,B,28/02/2008 0:00,0.681,,28/02/2008 0:00,18.4,B,28/02/2008 0:00,70,B,28/02/2008 0:00,21.6,B,28/02/2008 0:00,95.7,B,28/02/2008,0.076,B
29/02/2008,128,B,29/02/2008 0:00,0.646,,29/02/2008 0:00,18,B,29/02/2008 0:00,68.1,B,29/02/2008 0:00,21.8,B,29/02/2008 0:00,93.9,B,29/02/2008,0.075,B
01/03/2008,127,B,01/03/2008 0:00,0.645,,01/03/2008 0:00,18.2,B,01/03/2008 0:00,77.6,B,01/03/2008 0:00,20,B,01/03/2008 0:00,93.9,B,01/03/2008,0.073,B
02/03/2008,109,B,02/03/2008 0:00,0.66,,02/03/2008 0:00,18,B,02/03/2008 0:00,81.8,B,02/03/2008 0:00,19.5,B,02/03/2008 0:00,102,B,02/03/2008,0.07,B
03/03/2008,102,B,03/03/2008 0:00,0.719,,03/03/2008 0:00,18.1,B,03/03/2008 0:00,81.2,B,03/03/2008 0:00,19,B,03/03/2008 0:00,106,B,03/03/2008,0.072,B
04/03/2008,104,B,04/03/2008 0:00,0.79,,04/03/2008 0:00,17.9,B,04/03/2008 0:00,80.5,B,04/03/2008 0:00,18.5,B,04/03/2008 0:00,105,B,04/03/2008,0.075,B
05/03/2008,106,B,05/03/2008 0:00,0.796,,05/03/2008 0:00,19,B,05/03/2008 0:00,78,B,05/03/2008 0:00,18.3,B,05/03/2008 0:00,104,B,05/03/2008,0.077,B
06/03/2008,110,B,06/03/2008 0:00,0.791,,06/03/2008 0:00,18.2,B,06/03/2008 0:00,77,B,06/03/2008 0:00,18.2,B,06/03/2008 0:00,101,B,06/03/2008,0.079,B
07/03/2008,115,B,07/03/2008 0:00,0.825,,07/03/2008 0:00,18.1,B,07/03/2008 0:00,75,B,07/03/2008 0:00,18,B,07/03/2008 0:00,99.5,B,07/03/2008,0.08,B
08/03/2008,118,B,08/03/2008 0:00,0.808,,08/03/2008 0:00,17.6,B,08/03/2008 0:00,74,B,08/03/2008 0:00,19,B,08/03/2008 0:00,97.2,B,08/03/2008,0.09,B
09/03/2008,120,B,09/03/2008 0:00,0.786,,09/03/2008 0:00,17.8,B,09/03/2008 0:00,76,B,09/03/2008 0:00,19.5,B,09/03/2008 0:00,97.2,B,09/03/2008,0.125,B
10/03/2008,121,B,10/03/2008 0:00,0.797,,10/03/2008 0:00,18,B,10/03/2008 0:00,79.3,B,10/03/2008 0:00,20,B,10/03/2008 0:00,99.8,B,10/03/2008,0.15,B
11/03/2008,121,B,11/03/2008 0:00,0.805,,11/03/2008 0:00,18.7,B,11/03/2008 0:00,78.4,B,11/03/2008 0:00,21.5,B,11/03/2008 0:00,104,B,11/03/2008,0.175,B
12/03/2008,121,B,12/03/2008 0:00,0.767,,12/03/2008 0:00,19.4,B,12/03/2008 0:00,74.6,B,12/03/2008 0:00,21.6,B,12/03/2008 0:00,104,B,12/03/2008,0.15,B
13/03/2008,120,B,13/03/2008 0:00,0.726,,13/03/2008 0:00,19.9,B,13/03/2008 0:00,71,B,13/03/2008 0:00,21.5,B,13/03/2008 0:00,101,B,13/03/2008,0.11,B
14/03/2008,117,B,14/03/2008 0:00,0.742,,14/03/2008 0:00,20.7,B,14/03/2008 0:00,66.7,B,14/03/2008 0:00,21.4,B,14/03/2008 0:00,96.7,B,14/03/2008,0.08,B
15/03/2008,115,B,15/03/2008 0:00,0.794,,15/03/2008 0:00,21,B,15/03/2008 0:00,67.3,B,15/03/2008 0:00,21.3,B,15/03/2008 0:00,92.1,B,15/03/2008,0.082,B
16/03/2008,114,B,16/03/2008 0:00,0.863,,16/03/2008 0:00,21.8,B,16/03/2008 0:00,66.2,B,16/03/2008 0:00,21.2,B,16/03/2008 0:00,92.6,B,16/03/2008,0.085,B
17/03/2008,117,B,17/03/2008 0:00,0.902,,17/03/2008 0:00,22.9,B,17/03/2008 0:00,69,B,17/03/2008 0:00,21.1,B,17/03/2008 0:00,91.3,B,17/03/2008,0.1,B
18/03/2008,128,B,18/03/2008 0:00,0.935,,18/03/2008 0:00,22.9,B,18/03/2008 0:00,71.7,B,18/03/2008 0:00,21,B,18/03/2008 0:00,94.2,B,18/03/2008,0.095,B
19/03/2008,134,B,19/03/2008 0:00,1.009,,19/03/2008 0:00,22.1,B,19/03/2008 0:00,76.7,B,19/03/2008 0:00,20.5,B,19/03/2008 0:00,96.9,B,19/03/2008,0.084,B
20/03/2008,139,B,20/03/2008 0:00,1.091,,20/03/2008 0:00,21,B,20/03/2008 0:00,72.8,B,20/03/2008 0:00,20.8,B,20/03/2008 0:00,102,B,20/03/2008,0.084,B
21/03/2008,144,B,21/03/2008 0:00,1.156,,21/03/2008 0:00,20.9,B,21/03/2008 0:00,74.8,B,21/03/2008 0:00,20.7,B,21/03/2008 0:00,97.8,B,21/03/2008,0.096,B
22/03/2008,140,B,22/03/2008 0:00,1.171,,22/03/2008 0:00,20.5,B,22/03/2008 0:00,76.2,B,22/03/2008 0:00,20.6,B,22/03/2008 0:00,99.8,B,22/03/2008,0.092,B
23/03/2008,137,B,23/03/2008 0:00,1.169,,23/03/2008 0:00,21,B,23/03/2008 0:00,75.1,B,23/03/2008 0:00,20.5,B,23/03/2008 0:00,101,B,23/03/2008,0.101,B
24/03/2008,139,B,24/03/2008 0:00,1.186,,24/03/2008 0:00,21.2,B,24/03/2008 0:00,74.4,B,24/03/2008 0:00,20.2,B,24/03/2008 0:00,99.9,B,24/03/2008,0.091,B
25/03/2008,143,B,25/03/2008 0:00,1.207,,25/03/2008 0:00,21.5,B,25/03/2008 0:00,73.4,B,25/03/2008 0:00,20,B,25/03/2008 0:00,98.9,B,25/03/2008,0.099,B
26/03/2008,149,B,26/03/2008 0:00,1.226,,26/03/2008 0:00,21.8,B,26/03/2008 0:00,67.8,B,26/03/2008 0:00,19.9,B,26/03/2008 0:00,97.6,B,26/03/2008,0.105,B
27/03/2008,154,B,27/03/2008 0:00,1.348,,27/03/2008 0:00,23,B,27/03/2008 0:00,69.4,B,27/03/2008 0:00,19.8,B,27/03/2008 0:00,91.6,B,27/03/2008,0.119,B
28/03/2008,159,B,28/03/2008 0:00,1.855,,28/03/2008 0:00,23.6,B,28/03/2008 0:00,66.6,B,28/03/2008 0:00,19.7,B,28/03/2008 0:00,93.2,B,28/03/2008,0.112,B
29/03/2008,159,B,29/03/2008 0:00,1.957,,29/03/2008 0:00,23.4,B,29/03/2008 0:00,60.7,B,29/03/2008 0:00,19,B,29/03/2008 0:00,90.2,B,29/03/2008,0.11,B
30/03/2008,154,B,30/03/2008 0:00,1.94,,30/03/2008 0:00,23.9,B,30/03/2008 0:00,63.4,B,30/03/2008 0:00,18,B,30/03/2008 0:00,83.3,B,30/03/2008,0.123,B
31/03/2008,150,B,31/03/2008 0:00,1.836,,31/03/2008 0:00,23.7,B,31/03/2008 0:00,62.9,B,31/03/2008 0:00,17.8,B,31/03/2008 0:00,85.1,B,31/03/2008,0.12,B
01/04/2008,146,B,01/04/2008 0:00,1.451,,01/04/2008 0:00,24.3,B,01/04/2008 0:00,58.6,B,01/04/2008 0:00,18,B,01/04/2008 0:00,84.3,B,01/04/2008,0.128,B
02/04/2008,144,B,02/04/2008 0:00,1.008,,02/04/2008 0:00,23.2,B,02/04/2008 0:00,61.3,B,02/04/2008 0:00,18.2,B,02/04/2008 0:00,80,B,02/04/2008,0.144,B
03/04/2008,152,B,03/04/2008 0:00,0.69,,03/04/2008 0:00,25,B,03/04/2008 0:00,66.6,B,03/04/2008 0:00,18.3,B,03/04/2008 0:00,85.8,B,03/04/2008,0.164,B
04/04/2008,160,B,04/04/2008 0:00,0.446,,04/04/2008 0:00,26.6,B,04/04/2008 0:00,66.4,B,04/04/2008 0:00,17,,04/04/2008 0:00,99.3,,04/04/2008,0.175,B
05/04/2008,171,B,05/04/2008 0:00,0.279,,05/04/2008 0:00,26.6,B,05/04/2008 0:00,72.3,B,05/04/2008 0:00,18.5,,05/04/2008 0:00,98.6,,05/04/2008,0.228,B
06/04/2008,174,B,06/04/2008 0:00,0.144,,06/04/2008 0:00,28.8,B,06/04/2008 0:00,70.6,B,06/04/2008 0:00,19.1,,06/04/2008 0:00,103,,06/04/2008,0.251,B
07/04/2008,179,B,07/04/2008 0:00,0.048,,07/04/2008 0:00,28.9,B,07/04/2008 0:00,75.2,,07/04/2008 0:00,19,,07/04/2008 0:00,99.9,,07/04/2008,0.278,B
08/04/2008,189,B,08/04/2008 0:00,0.002,,08/04/2008 0:00,29.4,B,08/04/2008 0:00,82.7,,08/04/2008 0:00,18.9,,08/04/2008 0:00,100,,08/04/2008,0.29,B
09/04/2008,203,B,09/04/2008 0:00,0.063,,09/04/2008 0:00,31.6,B,09/04/2008 0:00,75.2,,09/04/2008 0:00,18.9,,09/04/2008 0:00,107,,09/04/2008,0.305,B
10/04/2008,220,B,10/04/2008 0:00,0.299,,10/04/2008 0:00,35.1,B,10/04/2008 0:00,57.6,,10/04/2008 0:00,19,,10/04/2008 0:00,103,,10/04/2008,0.359,B
11/04/2008,210,B,11/04/2008 0:00,4.002,,11/04/2008 0:00,39.2,B,11/04/2008 0:00,54.8,,11/04/2008 0:00,19.4,,11/04/2008 0:00,84,,11/04/2008,0.4,B
12/04/2008,200,B,12/04/2008 0:00,8.713,,12/04/2008 0:00,40.9,,12/04/2008 0:00,58.6,,12/04/2008 0:00,19.8,,12/04/2008 0:00,81.3,,12/04/2008,1.01,B
13/04/2008,195,B,13/04/2008 0:00,7.259,,13/04/2008 0:00,42.3,,13/04/2008 0:00,78.1,,13/04/2008 0:00,20.3,,13/04/2008 0:00,77.4,,13/04/2008,4.32,B
14/04/2008,197,B,14/04/2008 0:00,10.161,,14/04/2008 0:00,46.1,,14/04/2008 0:00,79.1,,14/04/2008 0:00,20.1,,14/04/2008 0:00,94.8,,14/04/2008,5.82,B
15/04/2008,201,B,15/04/2008 0:00,19.897,,15/04/2008 0:00,58.9,A,15/04/2008 0:00,86.3,,15/04/2008 0:00,20.1,,15/04/2008 0:00,98.2,,15/04/2008,2.16,
16/04/2008,201,B,16/04/2008 0:00,15.388,,16/04/2008 0:00,59.4,B,16/04/2008 0:00,80.3,,16/04/2008 0:00,21.2,,16/04/2008 0:00,106,,16/04/2008,1.27,
17/04/2008,196,B,17/04/2008 0:00,12.315,,17/04/2008 0:00,55.4,B,17/04/2008 0:00,61.1,,17/04/2008 0:00,22.7,,17/04/2008 0:00,101,,17/04/2008,1.41,
18/04/2008,178,B,18/04/2008 0:00,9.558,,18/04/2008 0:00,50,B,18/04/2008 0:00,42.1,,18/04/2008 0:00,23.5,B,18/04/2008 0:00,86.3,,18/04/2008,0.882,
19/04/2008,165,B,19/04/2008 0:00,7.532,,19/04/2008 0:00,48.5,B,19/04/2008 0:00,38.7,,19/04/2008 0:00,24.8,B,19/04/2008 0:00,72.8,,19/04/2008,0.633,
20/04/2008,156,B,20/04/2008 0:00,6.854,,20/04/2008 0:00,46.8,B,20/04/2008 0:00,42.8,,20/04/2008 0:00,24,B,20/04/2008 0:00,65.2,A,20/04/2008,0.49,
21/04/2008,145,B,21/04/2008 0:00,4.02,,21/04/2008 0:00,46.2,B,21/04/2008 0:00,57.5,,21/04/2008 0:00,22.5,B,21/04/2008 0:00,64.6,A,21/04/2008,0.498,
22/04/2008,135,B,22/04/2008 0:00,4.261,,22/04/2008 0:00,46.2,B,22/04/2008 0:00,60.5,,22/04/2008 0:00,20,B,22/04/2008 0:00,71,A,22/04/2008,0.364,
23/04/2008,127,B,23/04/2008 0:00,5.102,,23/04/2008 0:00,46.2,B,23/04/2008 0:00,45.9,,23/04/2008 0:00,19.5,B,23/04/2008 0:00,81.3,,23/04/2008,0.426,
24/04/2008,121,B,24/04/2008 0:00,6.101,,24/04/2008 0:00,44.8,,24/04/2008 0:00,44.1,,24/04/2008 0:00,20,B,24/04/2008 0:00,71.8,,24/04/2008,0.354,
25/04/2008,116,B,25/04/2008 0:00,5.588,,25/04/2008 0:00,41.8,,25/04/2008 0:00,43.1,,25/04/2008 0:00,21,B,25/04/2008 0:00,63,,25/04/2008,0.297
26/04/2008,115,B,26/04/2008 0:00,4.581,,26/04/2008 0:00,37.8,,26/04/2008 0:00,42,,26/04/2008 0:00,22,B,26/04/2008 0:00,59,,26/04/2008,0.426
27/04/2008,115,B,27/04/2008 0:00,4.51,,27/04/2008 0:00,36,,27/04/2008 0:00,36.2,,27/04/2008 0:00,24,B,27/04/2008 0:00,56,A,27/04/2008,0.805
28/04/2008,122,B,28/04/2008 0:00,5.033,,28/04/2008 0:00,37.8,,28/04/2008 0:00,27,,28/04/2008 0:00,25,,28/04/2008 0:00,55.4,A,28/04/2008,2.42
29/04/2008,207,,29/04/2008 0:00,6.744,,29/04/2008 0:00,40.2,,29/04/2008 0:00,23.8,,29/04/2008 0:00,22.7,,29/04/2008 0:00,52.6,A,29/04/2008,1.94
30/04/2008,282,,30/04/2008 0:00,9.025,,30/04/2008 0:00,39.4,,30/04/2008 0:00,24.7,,30/04/2008 0:00,21.4,,30/04/2008 0:00,49.9,A,30/04/2008,0.888
01/05/2008,267,,01/05/2008 0:00,11.356,,01/05/2008 0:00,38.8,,01/05/2008 0:00,23.7,,01/05/2008 0:00,20.6,,01/05/2008 0:00,46.5,,01/05/2008,0.652
02/05/2008,265,,02/05/2008 0:00,13.507,,02/05/2008 0:00,38.9,,02/05/2008 0:00,24.6,,02/05/2008 0:00,20.6,,02/05/2008 0:00,45.8,,02/05/2008,0.574
03/05/2008,259,,03/05/2008 0:00,12.565,,03/05/2008 0:00,37.5,,03/05/2008 0:00,24.7,,03/05/2008 0:00,20.5,,03/05/2008 0:00,45.1,,03/05/2008,0.568
04/05/2008,240,,04/05/2008 0:00,11.025,,04/05/2008 0:00,39.7,,04/05/2008 0:00,24.1,,04/05/2008 0:00,20.2,,04/05/2008 0:00,46.5,,04/05/2008,0.568
05/05/2008,224,,05/05/2008 0:00,10.168,,05/05/2008 0:00,67.3,,05/05/2008 0:00,24.1,,05/05/2008 0:00,19.6,,05/05/2008 0:00,46.9,,05/05/2008,0.571
06/05/2008,225,,06/05/2008 0:00,9.948,,06/05/2008 0:00,84.3,,06/05/2008 0:00,24.8,,06/05/2008 0:00,20.1,,06/05/2008 0:00,47.9,,06/05/2008,0.605
07/05/2008,226,,07/05/2008 0:00,9.322,,07/05/2008 0:00,89.6,,07/05/2008 0:00,26.2,,07/05/2008 0:00,21.2,,07/05/2008 0:00,49.4,,07/05/2008,1.08
08/05/2008,235,,08/05/2008 0:00,8.979,,08/05/2008 0:00,82.9,,08/05/2008 0:00,26.1,,08/05/2008 0:00,22.3,,08/05/2008 0:00,54.5,,08/05/2008,0.895
09/05/2008,266,,09/05/2008 0:00,8.462,,09/05/2008 0:00,77.2,,09/05/2008 0:00,27.2,,09/05/2008 0:00,24.4,,09/05/2008 0:00,57.4,,09/05/2008,0.67
10/05/2008,295,,10/05/2008,8.125,,10/05/2008 0:00,71.4,,10/05/2008 0:00,27.3,,10/05/2008 0:00,26.2,,10/05/2008 0:00,59.1,,10/05/2008,0.602
11/05/2008,275,,11/05/2008,7.488,,11/05/2008 0:00,71.4,,11/05/2008 0:00,49.5,,11/05/2008 0:00,29.9,,11/05/2008 0:00,61.2,,11/05/2008,0.717
12/05/2008,272,,12/05/2008,7.545,,12/05/2008 0:00,76.1,,12/05/2008 0:00,54.6,,12/05/2008 0:00,31,,12/05/2008 0:00,75.6,,12/05/2008,0.747
13/05/2008,321,,13/05/2008,7.67,,13/05/2008 0:00,95.9,,13/05/2008 0:00,53.1,,13/05/2008 0:00,30.4,,13/05/2008 0:00,93.7,,13/05/2008,0.625
14/05/2008,357,,14/05/2008,7.304,,14/05/2008 0:00,141,,14/05/2008 0:00,43.7,,14/05/2008 0:00,31,,14/05/2008 0:00,90.6,,14/05/2008,0.565
15/05/2008,366,,15/05/2008,6.932,,15/05/2008 0:00,152,,15/05/2008 0:00,40.7,,15/05/2008 0:00,31.4,,15/05/2008 0:00,88.1,,15/05/2008,0.525
16/05/2008,381,,16/05/2008,6.347,,16/05/2008 0:00,156,,16/05/2008 0:00,62,,16/05/2008 0:00,29.9,,16/05/2008 0:00,79.6,,16/05/2008,0.496
17/05/2008,423,,17/05/2008,6.067,,17/05/2008 0:00,185,,17/05/2008 0:00,69.3,,17/05/2008 0:00,29.8,,17/05/2008 0:00,88.3,,17/05/2008,0.467
18/05/2008,409,,18/05/2008,5.746,,18/05/2008 0:00,194,,18/05/2008 0:00,64.8,,18/05/2008 0:00,27.8,,18/05/2008 0:00,109,,18/05/2008,0.432
19/05/2008,368,,19/05/2008,5.626,,19/05/2008 0:00,194,,19/05/2008 0:00,61.3,,19/05/2008 0:00,27.2,,19/05/2008 0:00,102,,19/05/2008,0.406
20/05/2008,371,,20/05/2008,5.821,,20/05/2008 0:00,188,,20/05/2008 0:00,105,,20/05/2008 0:00,26.4,,20/05/2008 0:00,98.4,,20/05/2008,0.454
21/05/2008,382,,21/05/2008,5.972,,21/05/2008 0:00,182,,21/05/2008 0:00,130,,21/05/2008 0:00,29.2,,21/05/2008 0:00,115,,21/05/2008,0.657
22/05/2008,374,,22/05/2008,6.496,,22/05/2008,162,,22/05/2008 0:00,137,,22/05/2008 0:00,39.6,,22/05/2008 0:00,139,,22/05/2008,0.585
23/05/2008,391,,23/05/2008,7.383,,23/05/2008,162,,23/05/2008 0:00,169,,23/05/2008 0:00,49.9,,23/05/2008 0:00,165,,23/05/2008,0.575
24/05/2008,411,,24/05/2008,8.481,,24/05/2008,180,,24/05/2008 0:00,184,,24/05/2008 0:00,55.8,,24/05/2008 0:00,224,,24/05/2008,0.74
25/05/2008,427,,25/05/2008,8.504,,25/05/2008,186,,25/05/2008 0:00,262,,25/05/2008 0:00,241,,25/05/2008 0:00,270,,25/05/2008,1.12
26/05/2008,576,,26/05/2008,7.872,,26/05/2008,158,,26/05/2008 0:00,630,,26/05/2008 0:00,590,,26/05/2008 0:00,701,,26/05/2008,0.924
27/05/2008,922,,27/05/2008,8.071,,27/05/2008,161,,27/05/2008 0:00,875,,27/05/2008 0:00,744,,27/05/2008 0:00,1440,,27/05/2008,0.712
28/05/2008,715,,28/05/2008,8.381,,28/05/2008,244,,28/05/2008 0:00,727,,28/05/2008 0:00,754,,28/05/2008 0:00,1560,,28/05/2008,0.621
29/05/2008,560,,29/05/2008,8.275,,29/05/2008,442,,29/05/2008 0:00,594,,29/05/2008 0:00,723,,29/05/2008 0:00,1480,,29/05/2008,0.57
30/05/2008,505,,30/05/2008,8.502,,30/05/2008,453,,30/05/2008 0:00,475,,30/05/2008 0:00,660,,30/05/2008 0:00,1290,,30/05/2008,0.516
31/05/2008,498,,31/05/2008,8.828,,31/05/2008,384,,31/05/2008 0:00,437,,31/05/2008 0:00,463,,31/05/2008 0:00,1060,,31/05/2008,0.473
01/06/2008,447,,01/06/2008,8.852,,01/06/2008,328,,01/06/2008 0:00,409,,01/06/2008 0:00,402,,01/06/2008 0:00,903,,01/06/2008,0.467
02/06/2008,388,A,02/06/2008,8.877,,02/06/2008,244,,02/06/2008 0:00,400,,02/06/2008 0:00,371,,02/06/2008 0:00,839,,02/06/2008,0.487
03/06/2008,387,,03/06/2008,8.532,,03/06/2008,213,,03/06/2008 0:00,393,,03/06/2008 0:00,366,,03/06/2008 0:00,785,,03/06/2008,0.487
04/06/2008,410,,04/06/2008,7.99,,04/06/2008,203,,04/06/2008 0:00,401,,04/06/2008 0:00,333,,04/06/2008 0:00,792,,04/06/2008,0.445
05/06/2008,424,,05/06/2008,7.728,,05/06/2008,196,,05/06/2008 0:00,417,,05/06/2008 0:00,313,,05/06/2008 0:00,777,,05/06/2008,0.412
06/06/2008,439,,06/06/2008,7.376,,06/06/2008,192,,06/06/2008 0:00,403,,06/06/2008 0:00,296,,06/06/2008 0:00,762,,06/06/2008,0.406